Weather History for PGSN - January, 2012

Change the Weather History Date:

Saturday, January 21, 2012

  Actual Average Record
Temperature  
Mean Temperature 78 °F -  
Max Temperature 84 °F 82 °F 91 °F (2015)
Min Temperature 73 °F 74 °F 71 °F (2013)
Cooling Degree Days 14    
Growing Degree Days 28 (Base 50)    
Moisture  
Dew Point 72 °F    
Average Humidity 81    
Maximum Humidity 97    
Minimum Humidity 57    
Precipitation  
Precipitation 0.00 in - - ()
Sea Level Pressure  
Sea Level Pressure 29.86 in    
Wind  
Wind Speed 2 mph (NNW)    
Max Wind Speed 7 mph    
Max Gust Speed -    
Visibility 10 miles    
Events      
Averages and records for this station are not official NWS values.
T = Trace of Precipitation, MM = Missing Value Source: NWS Daily Summary

Daily Weather History Graph

Daily Weather History Graph

Search for Another Location

Airport or City:

Trip Planner

Search our weather history database for the weather conditions in past years. The results will help you decide how hot, cold, wet, or windy it might be!

Date:

Astronomy

Jan. 21, 2012 Rise Set
Actual Time 6:47 AM ChST 6:09 PM ChST
Civil Twilight 6:24 AM ChST 6:32 PM ChST
Nautical Twilight 5:58 AM ChST 6:58 PM ChST
Astronomical Twilight 5:32 AM ChST 7:24 PM ChST
Moon 4:34 AM ChST (1/21) 4:10 PM ChST (1/21)
Length of Visible Light 12h 07m
Length of Day
11h 22m
Waning Crescent, 6% of the Moon is Illuminated
Jan 21
Waning Crescent
Jan 23
New
Jan 31
First Quarter
Feb 8
Full
Feb 15
Last Quarter

Hourly Weather History & Observations

Time (ChST) Temp. Heat Index Dew Point Humidity Pressure Visibility Wind Dir Wind Speed Gust Speed Precip Events Conditions
12:54 AM 73.9 °F - 73.0 °F 97% 29.86 in 10.0 mi ENE 3.5 mph - N/A   Partly Cloudy
1:54 AM 75.0 °F - 73.0 °F 94% 29.85 in 10.0 mi Calm Calm - N/A   Partly Cloudy
2:54 AM 75.0 °F - 72.0 °F 90% 29.83 in 10.0 mi Calm Calm - N/A   Partly Cloudy
3:54 AM 73.9 °F - 72.0 °F 93% 29.82 in 10.0 mi Calm Calm - N/A   Partly Cloudy
4:54 AM 73.0 °F - 72.0 °F 96% 29.83 in 10.0 mi Calm Calm - N/A   Clear
5:54 AM 73.9 °F - 72.0 °F 93% 29.84 in 10.0 mi Calm Calm - N/A   Clear
6:54 AM 73.0 °F - 71.1 °F 93% 29.87 in 10.0 mi Calm Calm - N/A   Clear
7:54 AM 75.9 °F - 73.9 °F 94% 29.89 in 10.0 mi Calm Calm - N/A   Partly Cloudy
8:54 AM 80.1 °F 84.5 °F 73.9 °F 81% 29.90 in 10.0 mi Calm Calm - N/A   Mostly Cloudy
9:54 AM 81.0 °F 86.2 °F 73.9 °F 79% 29.90 in 10.0 mi SSW 3.5 mph - N/A   Overcast
10:54 AM 82.9 °F 87.5 °F 71.1 °F 67% 29.88 in 10.0 mi Calm Calm - N/A   Overcast
11:54 AM 84.9 °F 88.2 °F 68.0 °F 57% 29.87 in 10.0 mi SW 4.6 mph - N/A   Overcast
12:54 PM 82.9 °F 88.8 °F 73.0 °F 72% 29.86 in 10.0 mi SW 4.6 mph - N/A   Overcast
1:54 PM 84.9 °F 89.4 °F 70.0 °F 61% 29.83 in 10.0 mi NNW 3.5 mph - N/A   Overcast
2:54 PM 82.9 °F 87.5 °F 71.1 °F 67% 29.83 in 10.0 mi NNW 6.9 mph - N/A   Overcast
3:54 PM 82.9 °F 87.0 °F 70.0 °F 65% 29.83 in 10.0 mi West 4.6 mph - N/A   Scattered Clouds
4:54 PM 81.0 °F 84.9 °F 71.1 °F 72% 29.85 in 10.0 mi NW 4.6 mph - N/A   Mostly Cloudy
5:54 PM 80.1 °F 83.8 °F 72.0 °F 76% 29.86 in 10.0 mi NNW 4.6 mph - N/A   Scattered Clouds
6:54 PM 78.1 °F - 72.0 °F 81% 29.86 in 10.0 mi North 4.6 mph - N/A   Scattered Clouds
7:54 PM 78.1 °F - 72.0 °F 81% 29.88 in 10.0 mi North 4.6 mph - N/A   Scattered Clouds
8:54 PM 78.1 °F - 72.0 °F 81% 29.89 in 10.0 mi North 3.5 mph - N/A   Overcast
9:54 PM 77.0 °F - 72.0 °F 84% 29.90 in 10.0 mi North 3.5 mph - N/A   Mostly Cloudy
10:54 PM 75.9 °F - 71.1 °F 85% 29.90 in 10.0 mi North 4.6 mph - N/A   Scattered Clouds
11:54 PM 75.0 °F - 72.0 °F 90% 29.90 in 10.0 mi North 3.5 mph - N/A   Scattered Clouds